Date String (YYYY-MM-DD hh:mm:ss) UTC,Instrument flags,Ambient pressure (hPa),Sample flow (lpm),Bypass flow (lpm),Sample temperature (°C),Ambient temperature (°C),ASC tube jacket temperature (°C),LED temperature (°C),Box temperature (°C),Sample RH (%),Span deviation,Mass concentration (μg/m³),Mass concentration (μg/m³),Mass concentration (μg/m³)
DateTimeUTC,F1_M11,P_M11,Q1_M11,Q2_M11,T1_M11,T2_M11,T3_M11,T4_M11,T5_M11,U1_M11,ZSPAN_M11,X0_M11,X2_M11,X1_M11
2022-07-28 17:00:00,,0833.1,5.00,0.00,30.4,27.6,00.0,39.1,31.9,32.5,0000.0,0004.77,0003.29,0002.88
2022-07-28 17:01:00,,0833.1,5.00,0.00,30.3,27.7,00.0,39.0,31.8,32.7,0000.0,0004.54,0003.22,0002.81
2022-07-28 17:02:00,,0833.1,5.00,0.00,30.2,27.8,00.0,39.0,31.8,33.3,0000.0,0004.14,0003.11,0002.73
2022-07-28 17:03:00,,0833.1,5.00,0.00,30.2,28.0,00.0,39.0,31.9,32.7,0000.0,0003.98,0003.03,0002.65
2022-07-28 17:04:00,,0833.1,5.00,0.00,30.2,28.1,00.0,39.0,31.9,32.3,0000.0,0003.90,0002.94,0002.56
2022-07-28 17:05:00,,0833.1,5.00,0.00,30.2,28.2,00.0,39.0,31.9,33.0,0000.0,0003.61,0002.83,0002.51
2022-07-28 17:06:00,,0833.0,5.00,0.00,30.2,28.4,00.0,39.0,31.9,33.0,0000.0,0003.47,0002.78,0002.45
2022-07-28 17:07:00,,0833.0,5.00,0.00,30.2,28.5,00.0,38.9,31.9,33.2,0000.0,0003.31,0002.72,0002.43
2022-07-28 17:08:00,,0833.0,5.01,0.00,30.2,28.6,00.0,38.9,31.9,33.6,0000.0,0003.30,0002.75,0002.44
2022-07-28 17:09:00,,0833.0,4.99,0.00,30.2,28.6,00.0,38.9,31.9,33.1,0000.0,0003.50,0002.83,0002.47
2022-07-28 17:10:00,,0833.0,5.01,0.00,30.2,28.7,00.0,38.9,32.0,33.4,0000.0,0003.62,0002.88,0002.50
2022-07-28 17:11:00,,0833.0,4.99,0.00,30.2,28.8,00.0,38.9,32.0,33.8,0000.0,0003.75,0002.95,0002.52
2022-07-28 17:12:00,,0833.1,5.01,0.00,30.2,28.9,00.0,38.9,32.0,33.6,0000.0,0003.93,0003.04,0002.58
2022-07-28 17:13:00,,0833.1,5.00,0.00,30.2,28.9,00.0,38.9,32.0,33.9,0000.0,0004.18,0003.15,0002.66
2022-07-28 17:14:00,,0833.0,5.01,0.00,30.2,29.0,00.0,38.9,32.0,33.6,0000.0,0004.51,0003.23,0002.75
2022-07-28 17:15:00,,0832.9,4.99,0.00,30.2,29.0,00.0,38.9,32.0,33.6,0000.0,0004.63,0003.27,0002.80
2022-07-28 17:16:00,,0832.9,5.01,0.00,30.2,29.0,00.0,38.9,32.1,34.2,0000.0,0004.82,0003.31,0002.82
2022-07-28 17:17:00,,0832.9,4.99,0.00,30.2,29.1,00.0,39.0,32.1,33.6,0000.0,0004.81,0003.32,0002.87
2022-07-28 17:18:00,,0832.9,5.01,0.00,30.2,29.1,00.0,39.0,32.1,33.7,0000.0,0005.41,0003.38,0002.93
2022-07-28 17:19:00,,0832.8,5.00,0.00,30.2,29.1,00.0,39.0,32.1,33.5,0000.0,0006.07,0003.40,0003.00
2022-07-28 17:20:00,,0832.8,5.00,0.00,30.2,28.5,00.0,38.9,32.0,33.8,0000.0,0005.95,0003.40,0003.04
2022-07-28 17:21:00,,0832.8,5.00,0.00,30.2,27.8,00.0,38.9,31.9,34.0,0000.0,0006.92,0003.46,0003.09
2022-07-28 17:22:00,,0832.9,4.99,0.00,30.1,27.5,00.0,38.8,31.8,34.3,0000.0,0007.28,0003.50,0003.15
2022-07-28 17:23:00,,0832.8,5.01,0.00,30.1,27.4,00.0,38.8,31.7,35.2,0000.0,0007.30,0003.54,0003.18
2022-07-28 17:24:00,,0832.8,4.99,0.00,30.1,27.5,00.0,38.8,31.7,34.9,0000.0,0007.20,0003.53,0003.18
2022-07-28 17:25:00,,0832.8,5.00,0.00,30.3,27.6,00.0,38.8,31.8,33.4,0000.0,0006.99,0003.49,0003.17
2022-07-28 17:26:00,,0832.8,5.00,0.00,30.3,27.8,00.0,38.8,31.8,33.4,0000.0,0006.94,0003.48,0003.16
2022-07-28 17:27:00,,0832.7,5.00,0.00,30.4,27.9,00.0,38.8,31.7,33.8,0000.0,0006.90,0003.45,0003.15
2022-07-28 17:28:00,,0832.8,5.00,0.00,30.4,28.1,00.0,38.8,31.7,33.7,0000.0,0007.01,0003.46,0003.13
2022-07-28 17:29:00,,0832.8,5.00,0.00,30.4,28.2,00.0,38.8,31.7,33.5,0000.0,0006.56,0003.44,0003.08
2022-07-28 17:30:00,,0832.8,5.00,0.00,30.4,28.3,00.0,38.8,31.7,33.2,0000.0,0005.89,0003.41,0003.00
2022-07-28 17:31:00,,0832.8,4.99,0.00,30.3,28.4,00.0,38.8,31.7,33.3,0000.0,0005.75,0003.35,0002.91
2022-07-28 17:32:00,,0832.7,5.01,0.00,30.3,28.5,00.0,38.9,31.8,33.6,0000.0,0004.62,0003.26,0002.83
2022-07-28 17:33:00,,0832.7,5.00,0.00,30.3,28.5,00.0,38.9,31.8,33.6,0000.0,0004.31,0003.20,0002.73
2022-07-28 17:34:00,,0832.7,4.98,0.00,30.3,28.6,00.0,38.9,31.8,33.7,0000.0,0004.14,0003.13,0002.64
2022-07-28 17:35:00,,0832.7,5.01,0.00,30.3,28.6,00.0,38.9,31.8,34.5,0000.0,0004.03,0003.06,0002.57
2022-07-28 17:36:00,,0832.7,5.01,0.00,30.3,28.7,00.0,38.9,31.8,34.1,0000.0,0003.96,0003.00,0002.53
2022-07-28 17:37:00,,0832.7,4.99,0.00,30.3,28.7,00.0,38.9,31.8,34.1,0000.0,0003.88,0002.93,0002.48
2022-07-28 17:38:00,,0832.7,5.00,0.00,30.3,28.7,00.0,38.9,31.8,34.4,0000.0,0003.87,0002.89,0002.45
2022-07-28 17:39:00,,0832.7,5.01,0.00,30.3,28.8,00.0,38.9,31.9,35.5,0000.0,0006.60,0002.83,0002.40
2022-07-28 17:40:00,,0832.6,5.00,0.00,30.5,28.8,00.0,38.9,32.0,35.6,0000.0,0007.62,0002.75,0002.35
2022-07-28 17:41:00,,0832.6,5.00,0.00,30.8,28.9,00.0,38.9,32.2,35.1,0000.0,0008.23,0002.73,0002.32
2022-07-28 17:42:00,,0832.6,4.98,0.00,31.1,28.9,00.0,39.0,32.3,34.0,0000.0,0008.20,0002.68,0002.29
2022-07-28 17:43:00,,0832.6,5.00,0.00,31.3,28.9,00.0,39.0,32.3,33.2,0000.0,0008.42,0002.76,0002.28
2022-07-28 17:44:00,,0832.6,5.00,0.00,31.4,29.0,00.0,39.1,32.2,31.8,0000.0,0008.85,0002.81,0002.30
2022-07-28 17:45:00,,0832.6,5.01,0.00,31.4,29.0,00.0,39.2,32.2,31.9,0000.0,0009.08,0002.81,0002.31
2022-07-28 17:46:00,,0832.6,5.01,0.00,31.4,29.0,00.0,39.2,32.2,32.4,0000.0,0009.43,0002.85,0002.32
2022-07-28 17:47:00,,0832.6,5.00,0.00,31.4,28.6,00.0,39.3,32.2,31.9,0000.0,0009.91,0002.91,0002.34
2022-07-28 17:48:00,,0832.6,4.99,0.00,31.4,28.0,00.0,39.3,32.1,32.1,0000.0,0010.09,0002.96,0002.35
2022-07-28 17:49:00,,0832.5,5.01,0.00,31.3,27.8,00.0,39.3,32.0,32.4,0000.0,0010.42,0003.03,0002.36
2022-07-28 17:50:00,,0832.5,5.00,0.00,31.2,27.9,00.0,39.4,32.0,32.4,0000.0,0009.83,0003.15,0002.41
2022-07-28 17:51:00,,0832.5,4.99,0.00,31.1,27.9,00.0,39.4,31.9,32.8,0000.0,0008.89,0003.17,0002.44
2022-07-28 17:52:00,,0832.5,5.00,0.00,31.1,28.1,00.0,39.4,31.9,32.6,0000.0,0008.31,0003.18,0002.47
2022-07-28 17:53:00,,0832.5,5.00,0.00,31.0,28.2,00.0,39.4,32.0,32.9,0000.0,0008.25,0003.22,0002.52
2022-07-28 17:54:00,,0832.5,5.00,0.00,31.0,28.3,00.0,39.4,32.0,33.3,0000.0,0008.21,0003.23,0002.56
2022-07-28 17:55:00,,0832.5,5.00,0.00,30.9,28.4,00.0,39.4,32.0,32.9,0000.0,0007.97,0003.21,0002.59
2022-07-28 17:56:00,,0832.4,5.01,0.00,30.9,28.5,00.0,39.4,32.0,33.0,0000.0,0007.60,0003.25,0002.61
2022-07-28 17:57:00,,0832.4,5.00,0.00,30.9,28.6,00.0,39.4,32.0,32.8,0000.0,0007.76,0003.30,0002.66
2022-07-28 17:58:00,,0832.4,4.99,0.00,30.8,28.6,00.0,39.3,32.0,32.2,0000.0,0007.39,0003.38,0002.76
2022-07-28 17:59:00,,0832.4,5.01,0.00,30.8,28.7,00.0,39.3,32.0,32.0,0000.0,0007.10,0003.43,0002.87
